Jackson Hole Airport

KJAC · Wyoming, Estados Unidos

METAR pasados KJAC · Jackson Hole Airport

A continuación puedes ver los METAR de los últimos días. Selecciona un año para ver los METAR más antiguos, desde el año 2007 en adelante.

27 de mayo de 2024

Hora Código Tiempo Temp. Visibilidad Cielo nuboso Viento METAR/SPECI
17:56
V
22 °C 10 mi - 190° 190° 5 kt METAR KJAC 282356Z 19005KT 10SM SCT110 22/M02 A3010 RMK AO2 SLP168 T02171017 10233 20178 56021

28 de mayo de 2024

Hora Código Tiempo Temp. Visibilidad Cielo nuboso Viento METAR/SPECI
16:56
V
22 °C 10 mi - 170° 170° 7 kt METAR KJAC 282256Z 17007KT 10SM FEW100 22/M02 A3012 RMK AO2 SLP170 T02171022
15:56
V
23 °C 10 mi - Var Var 4 kt METAR KJAC 282156Z VRB04KT 10SM CLR 23/M02 A3015 RMK AO2 SLP177 T02281022
14:56
V
22 °C 10 mi - Var Var 6 kt METAR KJAC 282056Z VRB06KT 10SM CLR 22/M01 A3018 RMK AO2 SLP186 T02221011 56021
13:56
V
21 °C 10 mi - 170° 170° 8 kt METAR KJAC 281956Z 17008KT 10SM CLR 21/M02 A3020 RMK AO2 SLP194 T02061017
12:56
V
20 °C 10 mi - 280° 280° 7 kt METAR KJAC 281856Z 28007KT 10SM CLR 20/00 A3022 RMK AO2 SLP203 T02000000
11:56
V
18 °C 10 mi - 190° 190° 6 kt METAR KJAC 281756Z 19006KT 10SM CLR 18/02 A3025 RMK AO2 SLP218 T01780022 10178 21006 58015
10:56
V
14 °C 10 mi - 190° 190° 5 kt METAR KJAC 281656Z 19005KT 10SM CLR 14/01 A3027 RMK AO2 SLP230 T01390011
09:56
V
11 °C 10 mi - 200° 200° 4 kt METAR KJAC 281556Z 20004KT 10SM CLR 11/M01 A3029 RMK AO2 SLP235 T01111006
08:56
V
8 °C 10 mi - 360° 360° 0 kt METAR KJAC 281456Z 00000KT 10SM CLR 08/M01 A3030 RMK AO2 SLP242 T00781006 50000
07:56
V
6 °C 10 mi - 360° 360° 0 kt METAR KJAC 281356Z 00000KT 10SM CLR 06/M02 A3031 RMK AO2 SLP239 T00561017
06:56
V
1 °C 10 mi - Var Var 3 kt METAR KJAC 281256Z VRB03KT 10SM CLR 01/M02 A3031 RMK AO2 SLP247 T00111022
05:56
V
-1 °C 10 mi - 320° 320° 4 kt METAR KJAC 281156Z AUTO 32004KT 10SM CLR M01/M03 A3030 RMK AO2 SLP248 T10061028 10050 21011 53003 FZRANO
04:56
V
1 °C 10 mi - 020° 020° 4 kt METAR KJAC 281056Z AUTO 02004KT 10SM CLR 01/M03 A3030 RMK AO2 SLP242 T00111028 FZRANO
03:56
V
2 °C 10 mi - 040° 040° 5 kt METAR KJAC 280956Z AUTO 04005KT 10SM CLR 02/M02 A3030 RMK AO2 SLP239 T00171022 FZRANO
02:56
V
2 °C 10 mi - 040° 040° 4 kt METAR KJAC 280856Z AUTO 04004KT 10SM CLR 02/M02 A3029 RMK AO2 SLP238 T00221022 51002 FZRANO
01:56
V
3 °C 10 mi - 020° 020° 4 kt METAR KJAC 280756Z AUTO 02004KT 10SM CLR 03/M02 A3029 RMK AO2 SLP238 T00331017
00:56
V
4 °C 10 mi - 020° 020° 5 kt METAR KJAC 280656Z AUTO 02005KT 10SM CLR 04/M02 A3029 RMK AO2 SLP237 T00441017 401891011

27 de mayo de 2024

Hora Código Tiempo Temp. Visibilidad Cielo nuboso Viento METAR/SPECI
23:56
V
4 °C 10 mi - Var Var 3 kt METAR KJAC 280556Z AUTO VRB03KT 10SM CLR 04/M01 A3029 RMK AO2 SLP242 T00391011 10183 20039 51010
22:56
V
6 °C 10 mi - 360° 360° 3 kt METAR KJAC 280456Z AUTO 36003KT 10SM CLR 06/M01 A3029 RMK AO2 SLP238 T00561011
21:56
V
10 °C 10 mi - 360° 360° 0 kt METAR KJAC 280356Z AUTO 00000KT 10SM CLR 10/M01 A3028 RMK AO2 SLP229 T01001006
20:56
V
12 °C 10 mi - 020° 020° 6 kt METAR KJAC 280256Z 02006KT 10SM CLR 12/M01 A3025 RMK AO2 SLP223 T01171006 53006
19:56
V
17 °C 10 mi - 330° 330° 8 kt METAR KJAC 280156Z 33008KT 10SM CLR 17/M02 A3024 RMK AO2 SLP214 T01671022
19:21
V
17 °C 10 mi - 330° 330° 7 kt METAR KJAC 280121Z 33007KT 10SM CLR 17/M02 A3023 RMK AO2
18:56
V
18 °C 10 mi - 280° 280° 5 kt METAR KJAC 280056Z 28005KT 10SM CLR 18/M02 A3023 RMK AO2 SLP216 T01781022

26 de mayo de 2024

Hora Código Tiempo Temp. Visibilidad Cielo nuboso Viento METAR/SPECI
17:56
V
18 °C 10 mi - 280° 280° 7 kt METAR KJAC 272356Z 28007KT 10SM CLR 18/M02 A3023 RMK AO2 SLP220 T01781022 10189 20139 56002

27 de mayo de 2024

Hora Código Tiempo Temp. Visibilidad Cielo nuboso Viento METAR/SPECI
16:56
V
18 °C 10 mi - 280° 280° 13 kt METAR KJAC 272256Z 28013KT 10SM FEW080 18/M02 A3023 RMK AO2 SLP217 T01781022
15:56
V
18 °C 10 mi - 280° 280° 11 - 17 kt METAR KJAC 272156Z 28011G17KT 10SM FEW085 18/M02 A3022 RMK AO2 SLP213 T01831022
15:28
V
18 °C 10 mi - 330° 330° 10 - 16 kt METAR KJAC 272128Z 33010G16KT 10SM CLR 18/M02 A3023 RMK AO2
14:56
V
17 °C 10 mi - 310° 310° 10 - 17 kt METAR KJAC 272056Z 31010G17KT 10SM CLR 17/M03 A3023 RMK AO2 SLP214 T01721033 57009
14:13
V
17 °C 10 mi - 340° 340° 11 - 16 kt METAR KJAC 272013Z 34011G16KT 10SM CLR 17/M04 A3024 RMK AO2
13:56
V
17 °C 10 mi - 270° 270° 9 kt METAR KJAC 271956Z 27009KT 10SM CLR 17/M05 A3025 RMK AO2 SLP218 T01671050
12:56
V
16 °C 10 mi - Var Var 4 kt METAR KJAC 271856Z VRB04KT 10SM FEW070 16/M03 A3025 RMK AO2 SLP216 T01561028
11:56
V
14 °C 10 mi - 130° 130° 4 kt METAR KJAC 271756Z 13004KT 10SM CLR 14/M03 A3027 RMK AO2 SLP223 T01391033 10144 21006 58001
10:56
V
13 °C 10 mi - 210° 210° 4 kt METAR KJAC 271656Z 21004KT 10SM CLR 13/M01 A3027 RMK AO2 SLP223 T01281011
09:56
V
11 °C 10 mi - 220° 220° 6 kt METAR KJAC 271556Z 22006KT 10SM CLR 11/M02 A3027 RMK AO2 SLP227 T01061022
08:56
V
8 °C 10 mi - 180° 180° 4 kt METAR KJAC 271456Z 18004KT 10SM CLR 08/M02 A3027 RMK AO2 SLP232 T00781017 51012
07:56
V
6 °C 10 mi - 360° 360° 0 kt METAR KJAC 271356Z 00000KT 10SM CLR 06/M01 A3026 RMK AO2 SLP232 T00561011
06:56
V
2 °C 10 mi - 360° 360° 0 kt METAR KJAC 271256Z 00000KT 10SM CLR 02/M02 A3024 RMK AO2 SLP232 T00171022
05:56
V
-1 °C 10 mi - 060° 060° 4 kt METAR KJAC 271156Z AUTO 06004KT 10SM CLR M01/M03 A3022 RMK AO2 SLP231 T10061028 10089 21011 53014 FZRANO
04:56
V
1 °C 10 mi - 020° 020° 5 kt METAR KJAC 271056Z AUTO 02005KT 10SM CLR 01/M02 A3021 RMK AO2 SLP221 T00111022 FZRANO
03:56
V
2 °C 10 mi - 100° 100° 5 kt METAR KJAC 270956Z AUTO 10005KT 10SM CLR 02/M03 A3019 RMK AO2 SLP211 T00171028 FZRANO
02:56
V
3 °C 10 mi - 200° 200° 7 kt METAR KJAC 270856Z AUTO 20007KT 10SM CLR 03/M02 A3017 RMK AO2 SLP204 T00331022 53005
01:56
V
4 °C 10 mi 9.000 ft 240° 240° 8 kt METAR KJAC 270756Z AUTO 24008KT 10SM OVC090 04/M02 A3016 RMK AO2 SLP198 T00441022
00:56
V
7 °C 10 mi 8.500 ft 270° 270° 3 kt METAR KJAC 270656Z AUTO 27003KT 10SM OVC085 07/M02 A3016 RMK AO2 SLP189 T00721017 401440050

26 de mayo de 2024

Hora Código Tiempo Temp. Visibilidad Cielo nuboso Viento METAR/SPECI
23:56
V
8 °C 10 mi 8.000 ft 120° 120° 5 kt METAR KJAC 270556Z AUTO 12005KT 10SM OVC080 08/M02 A3016 RMK AO2 SLP187 T00831017 10144 20083 51012
22:56
V
9 °C 10 mi 7.500 ft 360° 360° 0 kt METAR KJAC 270456Z AUTO 00000KT 10SM OVC075 09/M02 A3015 RMK AO2 SLP185 T00891017
21:56
V
10 °C 10 mi 7.500 ft 210° 210° 7 kt METAR KJAC 270356Z AUTO 21007KT 10SM OVC075 10/M02 A3013 RMK AO2 SLP182 T01001017
20:56
V
11 °C 10 mi 7.000 ft 230° 230° 7 - 14 kt METAR KJAC 270256Z 23007G14KT 10SM OVC070 11/M02 A3011 RMK AO2 SLP174 T01111022 53011
19:56
V
12 °C 10 mi 7.000 ft 210° 210° 11 - 16 kt METAR KJAC 270156Z 21011G16KT 10SM BKN070 12/M02 A3010 RMK AO2 SLP172 T01221022
18:56
V
14 °C 10 mi - 220° 220° 13 - 17 kt METAR KJAC 270056Z 22013G17KT 10SM SCT070 14/M02 A3008 RMK AO2 SLP162 T01391017

25 de mayo de 2024

Hora Código Tiempo Temp. Visibilidad Cielo nuboso Viento METAR/SPECI
17:56
V
14 °C 10 mi - 260° 260° 15 - 19 kt METAR KJAC 262356Z 26015G19KT 10SM SCT075 14/M03 A3007 RMK AO2 PK WND 23026/2312 SLP161 T01391028 10144 20117 51009

26 de mayo de 2024

Hora Código Tiempo Temp. Visibilidad Cielo nuboso Viento METAR/SPECI
16:56
V
13 °C 10 mi 7.000 ft 230° 230° 16 kt METAR KJAC 262256Z 23016KT 10SM OVC070 13/M03 A3007 RMK AO2 SLP159 T01331033
15:56
V
14 °C 10 mi 7.000 ft 300° 300° 14 - 30 kt METAR KJAC 262156Z 30014G30KT 10SM OVC070 14/M03 A3006 RMK AO2 PK WND 31030/2152 SLP153 T01391028
14:56
V
13 °C 10 mi 7.000 ft 250° 250° 19 - 22 kt METAR KJAC 262056Z 25019G22KT 10SM BKN070 13/M04 A3004 RMK AO2 SLP148 T01331039 53003
13:56
V
13 °C 10 mi 7.000 ft 270° 270° 11 - 22 kt METAR KJAC 261956Z 27011G22KT 230V300 10SM OVC070 13/M04 A3003 RMK AO2 SLP145 T01281039
12:56
V
13 °C 10 mi 7.000 ft 210° 210° 8 - 18 kt METAR KJAC 261856Z 21008G18KT 140V250 10SM OVC070 13/M03 A3003 RMK AO2 SLP143 T01331033
11:56
V
12 °C 10 mi - 220° 220° 10 - 19 kt METAR KJAC 261756Z 22010G19KT 10SM SCT065 12/M03 A3003 RMK AO2 SLP145 T01221033 10122 20061 51003
10:56
V
12 °C 10 mi 6.000 ft 200° 200° 8 - 17 kt METAR KJAC 261656Z 20008G17KT 10SM BKN060 12/M03 A3003 RMK AO2 SLP144 T01171028
07:56
V
7 °C 10 mi 5.100 ft 220° 220° 10 kt METAR KJAC 261356Z 22010KT 10SM OVC051 07/M02 A3000 RMK AO2 SLP144 T00671022
06:56
V
6 °C 10 mi 5.100 ft 200° 200° 9 kt METAR KJAC 261256Z 20009KT 10SM OVC051 06/M02 A2999 RMK AO2 SLP136 T00611022
05:56
V
6 °C 10 mi 4.300 ft 200° 200° 10 kt METAR KJAC 261156Z AUTO 20010KT 10SM OVC043 06/M02 A2996 RMK AO2 SLP130 60000 70005 T00611022 10072 20050 51015
04:56
V
6 °C 10 mi 4.500 ft 220° 220° 12 - 19 kt METAR KJAC 261056Z AUTO 22012G19KT 10SM BKN045 OVC050 06/M02 A2995 RMK AO2 RAB12E23 SLP124 P0000 T00611022
03:56
V
7 °C 10 mi 5.000 ft 230° 230° 13 - 22 kt METAR KJAC 260956Z AUTO 23013G22KT 10SM OVC050 07/M03 A2993 RMK AO2 SLP113 T00721028
02:56
V
6 °C 10 mi - 220° 220° 9 - 15 kt METAR KJAC 260856Z AUTO 22009G15KT 10SM CLR 06/M03 A2991 RMK AO2 SLP114 T00611028 52003
01:56
V
7 °C 10 mi - 180° 180° 9 kt METAR KJAC 260756Z AUTO 18009KT 10SM FEW100 07/M02 A2990 RMK AO2 SLP112 T00671022
00:56
V
7 °C 10 mi 9.500 ft 190° 190° 8 kt METAR KJAC 260656Z AUTO 19008KT 10SM FEW055 BKN095 07/M02 A2991 RMK AO2 SLP122 T00671017 401281011

25 de mayo de 2024

Hora Código Tiempo Temp. Visibilidad Cielo nuboso Viento METAR/SPECI
23:56
V
7 °C 10 mi 5.500 ft 190° 190° 13 - 16 kt METAR KJAC 260556Z AUTO 19013G16KT 10SM BKN055 07/M01 A2990 RMK AO2 SLP114 T00721011 10117 20072 50010
Cambiar esta información